Year,Month,Day,Hour,Minute,Value (Times are PST for temperature in C)
2016,04,29,00,00,12.10
2016,04,29,00,01,12.10
2016,04,29,00,02,12.10
2016,04,29,00,03,12.10
2016,04,29,00,04,12.10
2016,04,29,00,05,12.10
2016,04,29,00,06,12.10
2016,04,29,00,07,12.10
2016,04,29,00,08,12.10
2016,04,29,00,09,12.10
2016,04,29,00,10,12.10
2016,04,29,00,11,12.10
2016,04,29,00,12,12.10
2016,04,29,00,13,12.10
2016,04,29,00,14,12.10
2016,04,29,00,15,12.10
2016,04,29,00,16,12.10
2016,04,29,00,17,12.00
2016,04,29,00,18,12.00
2016,04,29,00,19,12.00
2016,04,29,00,20,12.00
2016,04,29,00,21,12.00
2016,04,29,00,22,12.00
2016,04,29,00,23,12.00
2016,04,29,00,24,12.00
2016,04,29,00,25,12.00
2016,04,29,00,26,12.00
2016,04,29,00,27,12.00
2016,04,29,00,28,12.00
2016,04,29,00,29,12.00
2016,04,29,00,30,12.00
2016,04,29,00,31,11.90
2016,04,29,00,32,11.90
2016,04,29,00,33,11.90
2016,04,29,00,34,11.90
2016,04,29,00,35,11.90
2016,04,29,00,36,11.90
2016,04,29,00,37,11.90
2016,04,29,00,38,11.90
2016,04,29,00,39,11.90
2016,04,29,00,40,11.90
2016,04,29,00,41,11.90
2016,04,29,00,42,11.90
2016,04,29,00,43,11.90
2016,04,29,00,44,11.90
2016,04,29,00,45,11.90
2016,04,29,00,46,11.90
2016,04,29,00,47,11.90
2016,04,29,00,48,11.90
2016,04,29,00,49,11.80
2016,04,29,00,50,11.80
2016,04,29,00,51,11.80
2016,04,29,00,52,11.80
2016,04,29,00,53,11.80
2016,04,29,00,54,11.80
2016,04,29,00,55,11.80
2016,04,29,00,56,11.80
2016,04,29,00,57,11.80
2016,04,29,00,58,11.80
2016,04,29,00,59,11.80
2016,04,29,01,00,11.80
2016,04,29,01,01,11.80
2016,04,29,01,02,11.80
2016,04,29,01,03,11.80
2016,04,29,01,04,11.70
2016,04,29,01,05,11.70
2016,04,29,01,06,11.70
2016,04,29,01,07,11.70
2016,04,29,01,08,11.70
2016,04,29,01,09,11.70
2016,04,29,01,10,11.70
2016,04,29,01,11,11.70
2016,04,29,01,12,11.70
2016,04,29,01,13,11.70
2016,04,29,01,14,11.70
2016,04,29,01,15,11.70
2016,04,29,01,16,11.70
2016,04,29,01,17,11.70
2016,04,29,01,18,11.70
2016,04,29,01,19,11.60
2016,04,29,01,20,11.60
2016,04,29,01,21,11.60
2016,04,29,01,22,11.60
2016,04,29,01,23,11.60
2016,04,29,01,24,11.60
2016,04,29,01,25,11.60
2016,04,29,01,26,11.60
2016,04,29,01,27,11.60
2016,04,29,01,28,11.60
2016,04,29,01,29,11.60
2016,04,29,01,30,11.60
2016,04,29,01,31,11.60
2016,04,29,01,32,11.60
2016,04,29,01,33,11.60
2016,04,29,01,34,11.60
2016,04,29,01,35,11.60
2016,04,29,01,36,11.60
2016,04,29,01,37,11.60
2016,04,29,01,38,11.50
2016,04,29,01,39,11.50
2016,04,29,01,40,11.50
2016,04,29,01,41,11.50
2016,04,29,01,42,11.50
2016,04,29,01,43,11.50
2016,04,29,01,44,11.50
2016,04,29,01,45,11.40
2016,04,29,01,46,11.40
2016,04,29,01,47,11.40
2016,04,29,01,48,11.40
2016,04,29,01,49,11.40
2016,04,29,01,50,11.40
2016,04,29,01,51,11.40
2016,04,29,01,52,11.40
2016,04,29,01,53,11.40
2016,04,29,01,54,11.40
2016,04,29,01,55,11.40
2016,04,29,01,56,11.40
2016,04,29,01,57,11.40
2016,04,29,01,58,11.40
2016,04,29,01,59,11.40
2016,04,29,02,00,11.40
2016,04,29,02,01,11.40
2016,04,29,02,02,11.40
2016,04,29,02,03,11.40
2016,04,29,02,04,11.40
2016,04,29,02,05,11.40
2016,04,29,02,06,11.40
2016,04,29,02,07,11.40
2016,04,29,02,08,11.30
2016,04,29,02,09,11.30
2016,04,29,02,10,11.30
2016,04,29,02,11,11.30
2016,04,29,02,12,11.30
2016,04,29,02,13,11.30
2016,04,29,02,14,11.30
2016,04,29,02,15,11.30
2016,04,29,02,16,11.30
2016,04,29,02,17,11.30
2016,04,29,02,18,11.30
2016,04,29,02,19,11.30
2016,04,29,02,20,11.30
2016,04,29,02,21,11.30
2016,04,29,02,22,11.30
2016,04,29,02,23,11.30
2016,04,29,02,24,11.30
2016,04,29,02,25,11.30
2016,04,29,02,26,11.20
2016,04,29,02,27,11.20
2016,04,29,02,28,11.20
2016,04,29,02,29,11.20
2016,04,29,02,30,11.20
2016,04,29,02,31,11.20
2016,04,29,02,32,11.10
2016,04,29,02,33,11.10
2016,04,29,02,34,11.10
2016,04,29,02,35,11.10
2016,04,29,02,36,11.00
2016,04,29,02,37,11.00
2016,04,29,02,38,11.00
2016,04,29,02,39,11.00
2016,04,29,02,40,11.00
2016,04,29,02,41,10.90
2016,04,29,02,42,10.90
2016,04,29,02,43,10.90
2016,04,29,02,44,10.90
2016,04,29,02,45,10.90
2016,04,29,02,46,10.90
2016,04,29,02,47,10.90
2016,04,29,02,48,10.90
2016,04,29,02,49,10.90
2016,04,29,02,50,10.90
2016,04,29,02,51,10.80
2016,04,29,02,52,10.80
2016,04,29,02,53,10.80
2016,04,29,02,54,10.80
2016,04,29,02,55,10.80
2016,04,29,02,56,10.80
2016,04,29,02,57,10.80
2016,04,29,02,58,10.80
2016,04,29,02,59,10.80
2016,04,29,03,00,10.80
2016,04,29,03,01,10.80
2016,04,29,03,02,10.80
2016,04,29,03,03,10.80
2016,04,29,03,04,10.80
2016,04,29,03,05,10.80
2016,04,29,03,06,10.80
2016,04,29,03,07,10.80
2016,04,29,03,08,10.80
2016,04,29,03,09,10.70
2016,04,29,03,10,10.70
2016,04,29,03,11,10.70
2016,04,29,03,12,10.70
2016,04,29,03,13,10.70
2016,04,29,03,14,10.70
2016,04,29,03,15,10.70
2016,04,29,03,16,10.70
2016,04,29,03,17,10.70
2016,04,29,03,18,10.70
2016,04,29,03,19,10.70
2016,04,29,03,20,10.70
2016,04,29,03,21,10.70
2016,04,29,03,22,10.70
2016,04,29,03,23,10.70
2016,04,29,03,24,10.70
2016,04,29,03,25,10.70
2016,04,29,03,26,10.70
2016,04,29,03,27,10.70
2016,04,29,03,28,10.70
2016,04,29,03,29,10.70
2016,04,29,03,30,10.70
2016,04,29,03,31,10.70
2016,04,29,03,32,10.60
2016,04,29,03,33,10.60
2016,04,29,03,34,10.60
2016,04,29,03,35,10.60
2016,04,29,03,36,10.60
2016,04,29,03,37,10.60
2016,04,29,03,38,10.60
2016,04,29,03,39,10.60
2016,04,29,03,40,10.60
2016,04,29,03,41,10.50
2016,04,29,03,42,10.50
2016,04,29,03,43,10.50
2016,04,29,03,44,10.50
2016,04,29,03,45,10.50
2016,04,29,03,46,10.50
2016,04,29,03,47,10.50
2016,04,29,03,48,10.50
2016,04,29,03,49,10.50
2016,04,29,03,50,10.50
2016,04,29,03,51,10.50
2016,04,29,03,52,10.50
2016,04,29,03,53,10.50
2016,04,29,03,54,10.50
2016,04,29,03,55,10.50
2016,04,29,03,56,10.50
2016,04,29,03,57,10.50
2016,04,29,03,58,10.50
2016,04,29,03,59,10.50
2016,04,29,04,00,10.50
2016,04,29,04,01,10.50
2016,04,29,04,02,10.50
2016,04,29,04,03,10.40
2016,04,29,04,04,10.50
2016,04,29,04,05,10.50
2016,04,29,04,06,10.50
2016,04,29,04,07,10.50
2016,04,29,04,08,10.40
2016,04,29,04,09,10.40
2016,04,29,04,10,10.40
2016,04,29,04,11,10.40
2016,04,29,04,12,10.40
2016,04,29,04,13,10.40
2016,04,29,04,14,10.40
2016,04,29,04,15,10.40
2016,04,29,04,16,10.40
2016,04,29,04,17,10.40
2016,04,29,04,18,10.40
2016,04,29,04,19,10.40
2016,04,29,04,20,10.40
2016,04,29,04,21,10.40
2016,04,29,04,22,10.40
2016,04,29,04,23,10.40
2016,04,29,04,24,10.40
2016,04,29,04,25,10.30
2016,04,29,04,26,10.30
2016,04,29,04,27,10.30
2016,04,29,04,28,10.30
2016,04,29,04,29,10.30
2016,04,29,04,30,10.30
2016,04,29,04,31,10.30
2016,04,29,04,32,10.30
2016,04,29,04,33,10.30
2016,04,29,04,34,10.30
2016,04,29,04,35,10.30
2016,04,29,04,36,10.30
2016,04,29,04,37,10.30
2016,04,29,04,38,10.30
2016,04,29,04,39,10.30
2016,04,29,04,40,10.30
2016,04,29,04,41,10.40
2016,04,29,04,42,10.40
2016,04,29,04,43,10.40
2016,04,29,04,44,10.40
2016,04,29,04,45,10.40
2016,04,29,04,46,10.40
2016,04,29,04,47,10.40
2016,04,29,04,48,10.40
2016,04,29,04,49,10.40
2016,04,29,04,50,10.40
2016,04,29,04,51,10.30
2016,04,29,04,52,10.30
2016,04,29,04,53,10.30
2016,04,29,04,54,10.30
2016,04,29,04,55,10.30
2016,04,29,04,56,10.30
2016,04,29,04,57,10.30
2016,04,29,04,58,10.30
2016,04,29,04,59,10.30
2016,04,29,05,00,10.30
2016,04,29,05,01,10.30
2016,04,29,05,02,10.30
2016,04,29,05,03,10.40
2016,04,29,05,04,10.40
2016,04,29,05,05,10.40
2016,04,29,05,06,10.40
2016,04,29,05,07,10.40
2016,04,29,05,08,10.40
2016,04,29,05,09,10.40
2016,04,29,05,10,10.40
2016,04,29,05,11,10.40
2016,04,29,05,12,10.40
2016,04,29,05,13,10.40
2016,04,29,05,14,10.40
2016,04,29,05,15,10.50
2016,04,29,05,16,10.50
2016,04,29,05,17,10.50
2016,04,29,05,18,10.60
2016,04,29,05,19,10.60
2016,04,29,05,20,10.60
2016,04,29,05,21,10.60
2016,04,29,05,22,10.60
2016,04,29,05,23,10.60
2016,04,29,05,24,10.70
2016,04,29,05,25,10.70
2016,04,29,05,26,10.70
2016,04,29,05,27,10.70
2016,04,29,05,28,10.70
2016,04,29,05,29,10.70
2016,04,29,05,30,10.70
2016,04,29,05,31,10.70
2016,04,29,05,32,10.70
2016,04,29,05,33,10.70
2016,04,29,05,34,10.70
2016,04,29,05,35,10.70
2016,04,29,05,36,10.70
2016,04,29,05,37,10.70
2016,04,29,05,38,10.70
2016,04,29,05,39,10.70
2016,04,29,05,40,10.70
2016,04,29,05,41,10.90
2016,04,29,05,42,10.90
2016,04,29,05,43,10.90
2016,04,29,05,44,10.90
2016,04,29,05,45,10.90
2016,04,29,05,46,10.90
2016,04,29,05,47,10.90
2016,04,29,05,48,10.90
2016,04,29,05,49,10.90
2016,04,29,05,50,10.90
2016,04,29,05,51,10.90
2016,04,29,05,52,10.90
2016,04,29,05,53,10.90
2016,04,29,05,54,10.90
2016,04,29,05,55,10.90
2016,04,29,05,56,10.90
2016,04,29,05,57,10.90
2016,04,29,05,58,10.90
2016,04,29,05,59,10.90
2016,04,29,06,00,10.90
2016,04,29,06,01,10.90
2016,04,29,06,02,10.90
2016,04,29,06,03,10.80
2016,04,29,06,04,10.80
2016,04,29,06,05,10.80
2016,04,29,06,06,10.80
2016,04,29,06,07,10.70
2016,04,29,06,08,10.70
2016,04,29,06,09,10.70
2016,04,29,06,10,10.70
2016,04,29,06,11,10.70
2016,04,29,06,12,10.70
2016,04,29,06,13,10.70
2016,04,29,06,14,10.70
2016,04,29,06,15,10.70
2016,04,29,06,16,10.70
2016,04,29,06,17,10.70
2016,04,29,06,18,10.60
2016,04,29,06,19,10.60
2016,04,29,06,20,10.60
2016,04,29,06,21,10.60
2016,04,29,06,22,10.60
2016,04,29,06,23,10.60
2016,04,29,06,24,10.60
2016,04,29,06,25,10.60
2016,04,29,06,26,10.60
2016,04,29,06,27,10.60
2016,04,29,06,28,10.60
2016,04,29,06,29,10.60
2016,04,29,06,30,10.60
2016,04,29,06,31,10.60
2016,04,29,06,32,10.60
2016,04,29,06,33,10.60
2016,04,29,06,34,10.60
2016,04,29,06,35,10.60
2016,04,29,06,36,10.60
2016,04,29,06,37,10.60
2016,04,29,06,38,10.60
2016,04,29,06,39,10.60
2016,04,29,06,40,10.60
2016,04,29,06,41,10.60
2016,04,29,06,42,10.60
2016,04,29,06,43,10.60
2016,04,29,06,44,10.60
2016,04,29,06,45,10.60
2016,04,29,06,46,10.70
2016,04,29,06,47,10.70
2016,04,29,06,48,10.70
2016,04,29,06,49,10.70
2016,04,29,06,50,10.70
2016,04,29,06,51,10.70
2016,04,29,06,52,10.70
2016,04,29,06,53,10.70
2016,04,29,06,54,10.70
2016,04,29,06,55,10.70
2016,04,29,06,56,10.80
2016,04,29,06,57,10.80
2016,04,29,06,58,10.80
2016,04,29,06,59,10.80
2016,04,29,07,00,10.80
2016,04,29,07,01,10.80
2016,04,29,07,02,10.80
2016,04,29,07,03,10.80
2016,04,29,07,04,10.80
2016,04,29,07,05,10.80
2016,04,29,07,06,10.90
2016,04,29,07,07,10.90
2016,04,29,07,08,10.90
2016,04,29,07,09,10.90
2016,04,29,07,10,10.90
2016,04,29,07,11,10.90
2016,04,29,07,12,10.90
2016,04,29,07,13,10.90
2016,04,29,07,14,10.90
2016,04,29,07,15,10.90
2016,04,29,07,16,11.00
2016,04,29,07,17,11.00
2016,04,29,07,18,11.00
2016,04,29,07,19,11.00
2016,04,29,07,20,11.00
2016,04,29,07,21,11.00
2016,04,29,07,22,11.10
2016,04,29,07,23,11.10
2016,04,29,07,24,11.10
2016,04,29,07,25,11.10
2016,04,29,07,26,11.10
2016,04,29,07,27,11.10
2016,04,29,07,28,11.10
2016,04,29,07,29,11.20
2016,04,29,07,30,11.20
2016,04,29,07,31,11.20
2016,04,29,07,32,11.20
2016,04,29,07,33,11.20
2016,04,29,07,34,11.20
2016,04,29,07,35,11.20
2016,04,29,07,36,11.20
2016,04,29,07,37,11.20
2016,04,29,07,38,11.20
2016,04,29,07,39,11.20
2016,04,29,07,40,11.20
2016,04,29,07,41,11.20
2016,04,29,07,42,11.20
2016,04,29,07,43,11.20
2016,04,29,07,44,11.20
2016,04,29,07,45,11.20
2016,04,29,07,46,11.20
2016,04,29,07,47,11.20
2016,04,29,07,48,11.30
2016,04,29,07,49,11.30
2016,04,29,07,50,11.30
2016,04,29,07,51,11.70
2016,04,29,07,52,11.70
2016,04,29,07,53,11.40
2016,04,29,11,03,15.00
2016,04,29,11,04,15.00
2016,04,29,11,05,15.00
2016,04,29,11,06,15.00
2016,04,29,11,07,15.00
2016,04,29,11,08,15.00
2016,04,29,11,09,15.00
2016,04,29,11,10,15.00
2016,04,29,11,11,15.00
2016,04,29,11,12,15.00
2016,04,29,11,13,15.10
2016,04,29,11,14,15.20
2016,04,29,11,15,15.20
2016,04,29,11,16,15.30
2016,04,29,11,17,15.30
2016,04,29,11,18,15.30
2016,04,29,11,19,15.30
2016,04,29,11,20,15.30
2016,04,29,11,21,15.30
2016,04,29,11,22,15.30
2016,04,29,11,23,15.30
2016,04,29,11,24,15.40
2016,04,29,11,25,15.40
2016,04,29,11,26,15.40
2016,04,29,11,27,15.40
2016,04,29,11,28,15.30
2016,04,29,11,29,15.30
2016,04,29,11,30,15.30
2016,04,29,11,31,15.30
2016,04,29,11,32,15.30
2016,04,29,11,33,15.40
2016,04,29,11,34,15.40
2016,04,29,11,35,15.30
2016,04,29,11,36,15.30
2016,04,29,11,37,15.30
2016,04,29,11,38,15.30
2016,04,29,11,39,15.30
2016,04,29,11,40,15.30
2016,04,29,11,41,15.40
2016,04,29,11,42,15.50
2016,04,29,11,43,15.50
2016,04,29,11,44,15.60
2016,04,29,11,45,15.60
2016,04,29,11,46,15.70
2016,04,29,11,47,15.70
2016,04,29,11,48,15.80
2016,04,29,11,49,15.90
2016,04,29,11,50,16.00
2016,04,29,11,51,16.00
2016,04,29,11,52,16.10
2016,04,29,11,53,16.10
2016,04,29,11,54,16.20
2016,04,29,11,55,16.10
2016,04,29,11,56,16.10
2016,04,29,11,57,16.10
2016,04,29,11,58,16.10
2016,04,29,11,59,16.00
2016,04,29,12,00,16.00
2016,04,29,12,01,16.00
2016,04,29,12,02,16.10
2016,04,29,12,03,16.10
2016,04,29,12,04,16.00
2016,04,29,12,05,16.10
2016,04,29,12,06,16.10
2016,04,29,12,07,16.10
2016,04,29,12,08,16.00
2016,04,29,12,09,16.00
2016,04,29,12,10,16.60
2016,04,29,13,01,16.00
2016,04,29,13,02,16.00
2016,04,29,13,03,16.00
2016,04,29,13,04,15.90
2016,04,29,13,05,15.80
2016,04,29,13,06,15.70
2016,04,29,13,07,15.60
2016,04,29,13,08,15.60
2016,04,29,13,09,15.60
2016,04,29,13,10,15.70
2016,04,29,13,11,15.70
2016,04,29,13,12,15.80
2016,04,29,13,13,15.90
2016,04,29,13,14,16.00
2016,04,29,13,15,16.10
2016,04,29,13,16,16.10
2016,04,29,13,17,16.20
2016,04,29,13,18,16.30
2016,04,29,13,19,16.40
2016,04,29,13,20,16.50
2016,04,29,13,21,16.50
2016,04,29,13,22,16.50
2016,04,29,13,23,16.50
2016,04,29,13,24,16.50
2016,04,29,13,25,16.50
2016,04,29,13,26,16.40
2016,04,29,13,27,16.40
2016,04,29,13,28,16.50
2016,04,29,13,29,16.50
2016,04,29,13,30,16.60
2016,04,29,13,31,16.70
2016,04,29,13,32,16.70
2016,04,29,13,33,16.70
2016,04,29,13,34,16.70
2016,04,29,13,35,16.70
2016,04,29,13,36,16.70
2016,04,29,13,37,16.70
2016,04,29,13,38,16.70
2016,04,29,13,39,16.70
2016,04,29,13,40,16.60
2016,04,29,13,41,16.60
2016,04,29,13,42,16.60
2016,04,29,13,43,16.60
2016,04,29,13,44,16.60
2016,04,29,13,45,16.60
2016,04,29,13,46,16.60
2016,04,29,13,47,16.60
2016,04,29,13,48,16.70
2016,04,29,13,49,16.80
2016,04,29,13,50,16.80
2016,04,29,13,51,16.90
2016,04,29,13,52,16.90
2016,04,29,13,53,16.90
2016,04,29,13,54,16.80
2016,04,29,13,55,16.80
2016,04,29,13,56,16.80
2016,04,29,13,57,16.80
2016,04,29,13,58,16.80
2016,04,29,13,59,16.90
2016,04,29,14,00,16.90
2016,04,29,14,01,17.00
2016,04,29,14,02,17.10
2016,04,29,14,03,17.10
2016,04,29,14,04,17.20
2016,04,29,14,05,17.20
2016,04,29,14,06,17.20
2016,04,29,14,07,17.30
2016,04,29,14,08,17.30
2016,04,29,14,09,17.40
2016,04,29,14,10,17.40
2016,04,29,14,11,17.50
2016,04,29,14,12,17.50
2016,04,29,14,13,17.50
2016,04,29,14,14,17.50
2016,04,29,14,15,17.50
2016,04,29,14,16,17.40
2016,04,29,14,17,17.40
2016,04,29,14,18,17.50
2016,04,29,14,19,17.40
2016,04,29,14,20,17.40
2016,04,29,14,21,17.40
2016,04,29,14,22,17.30
2016,04,29,14,23,17.30
2016,04,29,14,24,17.20
2016,04,29,14,25,17.20
2016,04,29,14,26,17.30
2016,04,29,14,27,17.30
2016,04,29,14,28,17.40
2016,04,29,14,29,17.40
2016,04,29,14,30,17.40
2016,04,29,14,31,17.40
2016,04,29,14,32,17.40
2016,04,29,14,33,17.30
2016,04,29,14,34,17.30
2016,04,29,14,35,17.20
2016,04,29,14,36,17.10
2016,04,29,14,37,17.00
2016,04,29,14,38,16.90
2016,04,29,14,39,16.90
2016,04,29,14,40,16.80
2016,04,29,14,41,16.80
2016,04,29,14,42,16.90
2016,04,29,14,43,16.90
2016,04,29,14,44,17.00
2016,04,29,14,45,17.10
2016,04,29,14,46,17.20
2016,04,29,14,47,17.30
2016,04,29,14,48,17.40
2016,04,29,14,49,17.50
2016,04,29,14,50,17.50
2016,04,29,14,51,17.50
2016,04,29,14,52,17.50
2016,04,29,14,53,17.60
2016,04,29,14,54,17.60
2016,04,29,14,55,17.60
2016,04,29,14,56,17.60
2016,04,29,14,57,17.60
2016,04,29,14,58,17.60
2016,04,29,14,59,17.70
2016,04,29,15,00,17.70
2016,04,29,15,01,17.60
2016,04,29,15,02,17.50
2016,04,29,15,03,17.30
2016,04,29,15,04,17.20
2016,04,29,15,05,17.00
2016,04,29,15,06,16.80
2016,04,29,15,07,16.60
2016,04,29,15,08,16.40
2016,04,29,15,09,16.30
2016,04,29,15,10,16.30
2016,04,29,15,11,16.20
2016,04,29,15,12,16.30
2016,04,29,15,13,16.30
2016,04,29,15,14,16.30
2016,04,29,15,15,16.20
2016,04,29,15,16,16.20
2016,04,29,15,17,16.20
2016,04,29,15,18,16.20
2016,04,29,15,19,16.20
2016,04,29,15,20,16.20
2016,04,29,15,21,16.20
2016,04,29,15,22,16.20
2016,04,29,15,23,16.10
2016,04,29,15,24,16.10
2016,04,29,15,25,16.00
2016,04,29,15,26,16.00
2016,04,29,15,27,16.00
2016,04,29,15,28,16.00
2016,04,29,15,29,16.00
2016,04,29,15,30,16.00
2016,04,29,15,31,15.90
2016,04,29,15,32,15.90
2016,04,29,15,33,15.90
2016,04,29,15,34,15.80
2016,04,29,15,35,15.80
2016,04,29,15,36,15.80
2016,04,29,15,37,15.80
2016,04,29,15,38,15.80
2016,04,29,15,39,15.80
2016,04,29,15,40,15.80
2016,04,29,15,41,15.90
2016,04,29,15,42,16.00
2016,04,29,15,43,16.00
2016,04,29,15,44,16.00
2016,04,29,15,45,16.10
2016,04,29,15,46,16.10
2016,04,29,15,47,16.10
2016,04,29,15,48,16.10
2016,04,29,15,49,16.10
2016,04,29,15,50,16.10
2016,04,29,15,51,16.10
2016,04,29,15,52,16.10
2016,04,29,15,53,16.20
2016,04,29,15,54,16.20
2016,04,29,15,55,16.10
2016,04,29,15,56,16.10
2016,04,29,15,57,16.10
2016,04,29,15,58,16.20
2016,04,29,15,59,16.10
2016,04,29,16,00,16.00
2016,04,29,16,01,16.10
2016,04,29,16,02,16.10
2016,04,29,16,03,16.20
2016,04,29,16,04,16.30
2016,04,29,16,05,16.40
2016,04,29,16,06,16.50
2016,04,29,16,07,16.60
2016,04,29,16,08,16.60
2016,04,29,16,09,16.70
2016,04,29,16,10,16.70
2016,04,29,16,11,16.70
2016,04,29,16,12,16.70
2016,04,29,16,13,16.70
2016,04,29,16,14,16.60
2016,04,29,16,15,16.60
2016,04,29,16,16,16.60
2016,04,29,16,17,16.60
2016,04,29,16,18,16.50
2016,04,29,16,19,16.50
2016,04,29,16,20,16.40
2016,04,29,16,21,16.40
2016,04,29,16,22,16.40
2016,04,29,16,23,16.40
2016,04,29,16,24,16.40
2016,04,29,16,25,16.50
2016,04,29,16,26,16.60
2016,04,29,16,27,16.70
2016,04,29,16,28,16.80
2016,04,29,16,29,16.80
2016,04,29,16,30,16.80
2016,04,29,16,31,16.80
2016,04,29,16,32,16.90
2016,04,29,16,33,16.90
2016,04,29,16,34,16.90
2016,04,29,16,35,16.90
2016,04,29,16,36,16.90
2016,04,29,16,37,17.00
2016,04,29,16,38,17.00
2016,04,29,16,39,17.00
2016,04,29,16,40,16.90
2016,04,29,16,41,16.80
2016,04,29,16,42,16.70
2016,04,29,16,43,16.50
2016,04,29,16,44,16.40
2016,04,29,16,45,16.30
2016,04,29,16,46,16.30
2016,04,29,16,47,16.10
2016,04,29,16,48,16.10
2016,04,29,16,49,16.10
2016,04,29,16,50,16.10
2016,04,29,16,51,16.10
2016,04,29,16,52,16.10
2016,04,29,16,53,16.20
2016,04,29,16,54,16.20
2016,04,29,16,55,16.30
2016,04,29,16,56,16.30
2016,04,29,16,57,16.40
2016,04,29,16,58,16.60
2016,04,29,16,59,16.70
2016,04,29,17,00,16.80
2016,04,29,17,01,16.90
2016,04,29,17,02,17.00
2016,04,29,17,03,17.10
2016,04,29,17,04,17.10
2016,04,29,17,05,17.10
2016,04,29,17,06,17.20
2016,04,29,17,07,17.20
2016,04,29,17,08,17.20
2016,04,29,17,09,17.20
2016,04,29,17,10,17.20
2016,04,29,17,11,17.20
2016,04,29,17,12,17.10
2016,04,29,17,13,17.00
2016,04,29,17,14,17.00
2016,04,29,17,15,16.90
2016,04,29,17,16,16.90
2016,04,29,17,17,16.80
2016,04,29,17,18,16.80
2016,04,29,17,19,16.70
2016,04,29,17,20,16.70
2016,04,29,17,21,16.60
2016,04,29,17,22,16.50
2016,04,29,17,23,16.50
2016,04,29,17,24,16.50
2016,04,29,17,25,16.40
2016,04,29,17,26,16.30
2016,04,29,17,27,16.30
2016,04,29,17,28,16.30
2016,04,29,17,29,16.30
2016,04,29,17,30,16.30
2016,04,29,17,31,16.20
2016,04,29,17,32,16.30
2016,04,29,17,33,16.30
2016,04,29,17,34,16.40
2016,04,29,17,35,16.40
2016,04,29,17,36,16.30
2016,04,29,17,37,16.30
2016,04,29,17,38,16.40
2016,04,29,17,39,16.40
2016,04,29,17,40,16.40
2016,04,29,17,41,16.40
2016,04,29,17,42,16.30
2016,04,29,17,43,16.20
2016,04,29,17,44,16.20
2016,04,29,17,45,16.20
2016,04,29,17,46,16.20
2016,04,29,17,47,16.20
2016,04,29,17,48,16.10
2016,04,29,17,49,16.10
2016,04,29,17,50,16.10
2016,04,29,17,51,16.20
2016,04,29,17,52,16.20
2016,04,29,17,53,16.20
2016,04,29,17,54,16.20
2016,04,29,17,55,16.10
2016,04,29,17,56,16.10
2016,04,29,17,57,16.00
2016,04,29,17,58,16.00
2016,04,29,17,59,16.00
2016,04,29,18,00,16.00
2016,04,29,18,01,15.90
2016,04,29,18,02,15.90
2016,04,29,18,03,15.90
2016,04,29,18,04,15.80
2016,04,29,18,05,15.80
2016,04,29,18,06,15.80
2016,04,29,18,07,15.80
2016,04,29,18,08,15.80
2016,04,29,18,09,15.80
2016,04,29,18,10,15.80
2016,04,29,18,11,15.80
2016,04,29,18,12,15.80
2016,04,29,18,13,15.80
2016,04,29,18,14,15.80
2016,04,29,18,15,15.70
2016,04,29,18,16,15.60
2016,04,29,18,17,15.60
2016,04,29,18,18,15.50
2016,04,29,18,19,15.50
2016,04,29,18,20,15.50
2016,04,29,18,21,15.50
2016,04,29,18,22,15.50
2016,04,29,18,23,15.40
2016,04,29,18,24,15.40
2016,04,29,18,25,15.30
2016,04,29,18,26,15.30
2016,04,29,18,27,15.30
2016,04,29,18,28,15.30
2016,04,29,18,29,15.30
2016,04,29,18,30,15.20
2016,04,29,18,31,15.20
2016,04,29,18,32,15.20
2016,04,29,18,33,15.20
2016,04,29,18,34,15.10
2016,04,29,18,35,15.10
2016,04,29,18,36,15.10
2016,04,29,18,37,15.00
2016,04,29,18,38,15.00
2016,04,29,18,39,15.00
2016,04,29,18,40,15.00
2016,04,29,18,41,15.00
2016,04,29,18,42,15.00
2016,04,29,18,43,15.00
2016,04,29,18,44,15.00
2016,04,29,18,45,15.00
2016,04,29,18,46,15.00
2016,04,29,18,47,15.00
2016,04,29,18,48,15.00
2016,04,29,18,49,15.00
2016,04,29,18,50,15.00
2016,04,29,18,51,15.00
2016,04,29,18,52,15.00
2016,04,29,18,53,15.00
2016,04,29,18,54,15.00
2016,04,29,18,55,15.00
2016,04,29,18,56,15.00
2016,04,29,18,57,15.00
2016,04,29,18,58,14.90
2016,04,29,18,59,14.90
2016,04,29,19,00,14.90
2016,04,29,19,01,14.80
2016,04,29,19,02,14.80
2016,04,29,19,03,14.80
2016,04,29,19,04,14.70
2016,04,29,19,05,14.70
2016,04,29,19,06,14.70
2016,04,29,19,07,14.70
2016,04,29,19,08,14.70
2016,04,29,19,09,14.60
2016,04,29,19,10,14.60
2016,04,29,19,11,14.60
2016,04,29,19,12,14.50
2016,04,29,19,13,14.50
2016,04,29,19,14,14.50
2016,04,29,19,15,14.40
2016,04,29,19,16,14.40
2016,04,29,19,17,14.40
2016,04,29,19,18,14.40
2016,04,29,19,19,14.30
2016,04,29,19,20,14.30
2016,04,29,19,21,14.20
2016,04,29,19,22,14.20
2016,04,29,19,23,14.20
2016,04,29,19,24,14.10
2016,04,29,19,25,14.10
2016,04,29,19,26,14.10
2016,04,29,19,27,14.10
2016,04,29,19,28,14.00
2016,04,29,19,29,14.00
2016,04,29,19,30,14.00
2016,04,29,19,31,14.00
2016,04,29,19,32,14.00
2016,04,29,19,33,13.90
2016,04,29,19,34,13.90
2016,04,29,19,35,13.90
2016,04,29,19,36,13.90
2016,04,29,19,37,13.90
2016,04,29,19,38,13.90
2016,04,29,19,39,13.80
2016,04,29,19,40,13.80
2016,04,29,19,41,13.80
2016,04,29,19,42,13.80
2016,04,29,19,43,13.70
2016,04,29,19,44,13.70
2016,04,29,19,45,13.70
2016,04,29,19,46,13.70
2016,04,29,19,47,13.60
2016,04,29,19,48,13.60
2016,04,29,19,49,13.60
2016,04,29,19,50,13.60
2016,04,29,19,51,13.50
2016,04,29,19,52,13.40
2016,04,29,19,53,13.40
2016,04,29,19,54,13.30
2016,04,29,19,55,13.30
2016,04,29,19,56,13.20
2016,04,29,19,57,13.10
2016,04,29,19,58,13.10
2016,04,29,19,59,13.00
2016,04,29,20,00,13.00
2016,04,29,20,01,12.90
2016,04,29,20,02,12.90
2016,04,29,20,03,12.90
2016,04,29,20,04,12.80
2016,04,29,20,05,12.80
2016,04,29,20,06,12.80
2016,04,29,20,07,12.70
2016,04,29,20,08,12.60
2016,04,29,20,09,12.60
2016,04,29,20,10,12.60
2016,04,29,20,11,12.60
2016,04,29,20,12,12.50
2016,04,29,20,13,12.50
2016,04,29,20,14,12.50
2016,04,29,20,15,12.50
2016,04,29,20,16,12.40
2016,04,29,20,17,12.40
2016,04,29,20,18,12.40
2016,04,29,20,19,12.40
2016,04,29,20,20,12.30
2016,04,29,20,21,12.30
2016,04,29,20,22,12.30
2016,04,29,20,23,12.30
2016,04,29,20,24,12.20
2016,04,29,20,25,12.20
2016,04,29,20,26,12.20
2016,04,29,20,27,12.20
2016,04,29,20,28,12.10
2016,04,29,20,29,12.10
2016,04,29,20,30,12.10
2016,04,29,20,31,12.00
2016,04,29,20,32,12.00
2016,04,29,20,33,11.90
2016,04,29,20,34,11.90
2016,04,29,20,35,11.90
2016,04,29,20,36,11.90
2016,04,29,20,37,11.80
2016,04,29,20,38,11.70
2016,04,29,20,39,11.70
2016,04,29,20,40,11.70
2016,04,29,20,41,11.70
2016,04,29,20,42,11.70
2016,04,29,20,43,11.60
2016,04,29,20,44,11.60
2016,04,29,20,45,11.60
2016,04,29,20,46,11.60
2016,04,29,20,47,11.60
2016,04,29,20,48,11.60
2016,04,29,20,49,11.50
2016,04,29,20,50,11.50
2016,04,29,20,51,11.40
2016,04,29,20,52,11.40
2016,04,29,20,53,11.40
2016,04,29,20,54,11.30
2016,04,29,20,55,11.30
2016,04,29,20,56,11.30
2016,04,29,20,57,11.30
2016,04,29,20,58,11.30
2016,04,29,20,59,11.20
2016,04,29,21,00,11.20
2016,04,29,21,01,11.20
2016,04,29,21,02,11.20
2016,04,29,21,03,11.20
2016,04,29,21,04,11.20
2016,04,29,21,05,11.20
2016,04,29,21,06,11.20
2016,04,29,21,07,11.20
2016,04,29,21,08,11.20
2016,04,29,21,09,11.20
2016,04,29,21,10,11.20
2016,04,29,21,11,11.20
2016,04,29,21,12,11.10
2016,04,29,21,13,11.10
2016,04,29,21,14,11.10
2016,04,29,21,15,11.10
2016,04,29,21,16,11.10
2016,04,29,21,17,11.10
2016,04,29,21,18,11.10